Location: Asheville, NC
(35.6000°N, 82.5500°W)
Time: 14:02:27
(UTC-05:00)

XW-2F - Pass Details

Date: 07 January 2018
Orbit: 507 x 528 km, 97.5° (Epoch: 19 January)

Event Time Altitude Azimuth Distance (km) Brightness Sun altitude
Rises 18:59:53 0° 211° (SSW) 2,646 ? -17.3°
Reaches altitude 10° 19:03:06 10° 241° (WSW) 1,765 ? -17.9°
Maximum altitude 19:04:45 12° 267° (W) 1,616 ? -18.2°
Drops below altitude 10° 19:06:25 10° 293° (WNW) 1,771 ? -18.5°
Sets 19:09:40 0° 324° (NW) 2,665 ? -19.2°
